User: anonymous
Location: Caltech
(34.1382°N, 118.1253°W)
Time: 16:14:14
(UTC-07:00)
Language:

deb Explorer IX - Orbit

View from above orbital plane
View from above orbital plane
View from above satellite
View from above satellite

Ground track
Ground track

The orbit data is extracted from the following two-line orbital elements,

1 00085U 61004C   14237.62744285  .00001675  00000-0  46576-3 0   204
2 00085 038.7696 335.1743 0453124 133.1094 230.8484 14.01526799630024
Epoch (UTC): 25 August 2014 15:03:31
Eccentricity: 0.0453124
inclination: 38.7696°
perigee height: 559 km
apogee height: 1218 km
right ascension of ascending node: 335.1743°
argument of perigee: 133.1094°
revolutions per day: 14.01526799
mean anomaly at epoch: 230.8484°
orbit number at epoch: 63002

The dashed part of the orbit path shows where the satellite is in the earth's shadow,  

DLR